Location: Unspecified
(41.5000°N, 0.0000°E)
Time: 20:42:42
(UTC+00:00)

deb Explorer IX - Pass Details

Date: 20 June 2019
Orbit: 539 x 1112 km, 38.8° (Epoch: 17 July)

Event Time Altitude Azimuth Distance (km) Brightness Sun altitude
Rises 19:23:11 0° 279° (W) 3,880 ? 1.4°
Reaches altitude 10° 19:26:16 10° 271° (W) 2,872 ? 0.9°
Maximum altitude 19:32:30 35° 209° (SSW) 1,516 ? -0.1°
Drops below altitude 10° 19:38:02 10° 145° (SE) 2,542 ? -1.0°
Enters shadow 19:40:25 - 137° (SE) 3,320 ? -1.4°
Sets 19:40:36 0° 137° (SE) 3,385 - -1.4°
